Weather History for Meacham, OR

Change the Weather History Date:

Tuesday, November 20, 2012

  Actual Average Record
Temperature  
Mean Temperature 45 °F -  
Max Temperature 53 °F 40 °F 57 °F (2002)
Min Temperature 37 °F 24 °F 8 °F (2013)
Degree Days  
Heating Degree Days 20    
Moisture  
Dew Point 39 °F    
Average Humidity 80    
Maximum Humidity 100    
Minimum Humidity 57    
Precipitation  
Precipitation 0.04 in - - ()
Sea Level Pressure  
Sea Level Pressure 29.76 in    
Wind  
Wind Speed 0 mph (South)    
Max Wind Speed 5 mph    
Max Gust Speed -    
Visibility 10 miles    
Events Rain    
Averages and records for this station are not official NWS values.
T = Trace of Precipitation, MM = Missing Value Source: NWS Daily Summary

Daily Weather History Graph

Daily Weather History Graph

Search for Another Location

Airport:

Trip Planner

Search our weather history database for the weather conditions in past years. The results will help you decide how hot, cold, wet, or windy it might be!

Date:

Astronomy

Nov. 20, 2012 Rise Set
Actual Time 7:00 AM PST 4:18 PM PST
Civil Twilight 6:27 AM PST 4:50 PM PST
Nautical Twilight 5:51 AM PST 5:27 PM PST
Astronomical Twilight 5:16 AM PST 6:02 PM PST
Moon 12:26 PM PST (11/20) No Moon Set
Length of Visible Light 10h 23m
Length of Day
9h 17m
First Quarter, 52% of the Moon is Illuminated
Nov 20
First Quarter
Nov 28
Full
Dec 6
Last Quarter
Dec 13
New
Dec 19
First Quarter

Hourly Weather History & Observations

Time (PST) Temp. Dew Point Humidity Pressure Visibility Wind Dir Wind Speed Gust Speed Precip Events Conditions
12:56 AM 44.1 °F 41.0 °F 89% 29.86 in 10.0 mi Calm Calm - 0.00 in Rain Light Rain
1:24 AM 42.8 °F 42.8 °F 100% 29.85 in 10.0 mi Calm Calm - 0.00 in Rain Light Rain
1:56 AM 43.0 °F 42.1 °F 97% 29.85 in 10.0 mi Calm Calm - 0.00 in Rain Light Rain
2:18 AM 42.8 °F 41.0 °F 93% 29.82 in 10.0 mi Calm Calm - 0.00 in   Overcast
2:56 AM 42.1 °F 41.0 °F 96% 29.81 in 10.0 mi Calm Calm - 0.00 in   Overcast
3:56 AM 46.0 °F 37.9 °F 73% 29.80 in 10.0 mi Calm Calm - N/A   Overcast
4:56 AM 46.9 °F 37.9 °F 71% 29.79 in 10.0 mi Calm Calm - N/A   Overcast
5:56 AM 46.0 °F 37.9 °F 73% 29.77 in 10.0 mi Calm Calm - N/A   Overcast
6:56 AM 48.0 °F 37.0 °F 66% 29.73 in 10.0 mi Calm Calm - N/A   Overcast
7:56 AM 48.9 °F 36.0 °F 61% 29.72 in 10.0 mi Calm Calm - N/A   Overcast
8:56 AM 48.9 °F 37.0 °F 64% 29.73 in 10.0 mi Calm Calm - 0.00 in Rain Light Rain
9:56 AM 48.0 °F 39.0 °F 71% 29.72 in 10.0 mi Variable 3.5 mph - 0.01 in Rain Light Rain
10:56 AM 46.9 °F 42.1 °F 83% 29.73 in 9.0 mi Calm Calm - 0.01 in Rain Light Rain
11:56 AM 48.0 °F 43.0 °F 83% 29.73 in 10.0 mi Calm Calm - 0.02 in Rain Light Rain
12:56 PM 50.0 °F 42.1 °F 74% 29.73 in 10.0 mi Calm Calm - 0.00 in   Mostly Cloudy
1:56 PM 50.0 °F 42.1 °F 74% 29.74 in 10.0 mi Calm Calm - N/A   Mostly Cloudy
2:56 PM 53.1 °F 37.9 °F 57% 29.74 in 10.0 mi South 4.6 mph - N/A   Scattered Clouds
3:56 PM 50.0 °F 39.0 °F 66% 29.75 in 10.0 mi Calm Calm - N/A   Partly Cloudy
4:56 PM 48.0 °F 39.0 °F 71% 29.74 in 10.0 mi Variable 3.5 mph - N/A   Overcast
5:56 PM 46.9 °F 39.0 °F 74% 29.77 in 10.0 mi Variable 3.5 mph - N/A   Overcast
6:56 PM 44.1 °F 39.0 °F 82% 29.78 in 10.0 mi Calm Calm - 0.00 in   Overcast
7:56 PM 42.1 °F 39.0 °F 89% 29.75 in 10.0 mi Calm Calm - N/A   Mostly Cloudy
8:56 PM 42.1 °F 39.0 °F 89% 29.75 in 10.0 mi Calm Calm - N/A   Overcast
9:56 PM 39.0 °F 37.0 °F 93% 29.73 in 10.0 mi Calm Calm - N/A   Clear
10:56 PM 37.9 °F 36.0 °F 93% 29.70 in 10.0 mi Calm Calm - N/A   Clear
11:56 PM 37.9 °F 36.0 °F 93% 29.68 in 10.0 mi Calm Calm - N/A   Overcast